When you browse on this site, cookies collect data to enhance your experience and personalize the content and advertising you see.
Visit our Privacy Policy to learn more. By continuing to use the site, you agree to this use of cookies and data.
  • In Deutschland
  • Länderverzeichnis
  • Für 7 Tage
  • Wassertemperatur
  • Satellitenkarten
  • Wetterkarte
  • Widgets
  • user-avatar
    Anmelden

    Stündliche Wetter Thimbu

    Heute, 17 Dezember, Montag

    Zeit Temperatur Niederschläge Wind Luftdruck Luftfeuchtigkeit
    00:00 -1°C° 0 mm 2 m/S 524 mmHg 52%
    01:00 -1°C° 0 mm 2 m/S 524 mmHg 49%
    02:00 -1°C° 0 mm 2 m/S 524 mmHg 47%
    03:00 -1°C° 0 mm 2 m/S 524 mmHg 44%
    04:00 -1°C° 0 mm 2 m/S 524 mmHg 44%
    05:00 -1°C° 0 mm 2 m/S 524 mmHg 43%
    06:00 -1°C° 0 mm 2 m/S 524 mmHg 39%
    07:00 +2°C° 0 mm 2 m/S 525 mmHg 36%
    08:00 +5°C° 0 mm 1 m/S 527 mmHg 32%
    09:00 +8°C° 0 mm 1 m/S 528 mmHg 29%
    10:00 +8°C° 0 mm 1 m/S 528 mmHg 29%
    11:00 +8°C° 0 mm 2 m/S 528 mmHg 28%
    12:00 +9°C° 0 mm 2 m/S 529 mmHg 29%
    13:00 +8°C° 0 mm 2 m/S 528 mmHg 34%
    14:00 +8°C° 0 mm 1 m/S 527 mmHg 39%
    15:00 +8°C° 0 mm 1 m/S 527 mmHg 44%
    16:00 +6°C° 0.1 mm 1 m/S 526 mmHg 51%
    17:00 +5°C° 0.1 mm 1 m/S 525 mmHg 58%
    18:00 +4°C° 0.1 mm 1 m/S 525 mmHg 65%
    19:00 +3°C° 0.2 mm 1 m/S 525 mmHg 68%
    20:00 +3°C° 0.2 mm 1 m/S 525 mmHg 71%
    21:00 +3°C° 0.2 mm 1 m/S 525 mmHg 74%
    22:00 +3°C° 0.4 mm 1 m/S 525 mmHg 76%
    23:00 +3°C° 0.4 mm 1 m/S 525 mmHg 78%

    Morgen, 18 Dezember, Dienstag

    Zeit Temperatur Niederschläge Wind Luftdruck Luftfeuchtigkeit
    00:00 +3°C° 0.4 mm 1 m/S 524 mmHg 80%
    01:00 +3°C° 0.5 mm 1 m/S 524 mmHg 81%
    02:00 +3°C° 0.5 mm 1 m/S 523 mmHg 83%
    03:00 +3°C° 0.5 mm 1 m/S 523 mmHg 85%
    04:00 +2°C° 0.6 mm 1 m/S 523 mmHg 86%
    05:00 +2°C° 0.6 mm 1 m/S 523 mmHg 87%
    06:00 +2°C° 0.6 mm 1 m/S 522 mmHg 88%
    07:00 +3°C° 0.8 mm 1 m/S 523 mmHg 87%
    08:00 +3°C° 0.8 mm 1 m/S 523 mmHg 87%
    09:00 +4°C° 0.8 mm 1 m/S 524 mmHg 86%
    10:00 +4°C° 1 mm 1 m/S 523 mmHg 87%
    11:00 +4°C° 1 mm 1 m/S 523 mmHg 89%
    12:00 +3°C° 1 mm 2 m/S 523 mmHg 90%
    13:00 +3°C° 0.9 mm 2 m/S 522 mmHg 91%
    14:00 +3°C° 0.9 mm 2 m/S 522 mmHg 92%
    15:00 +3°C° 0.9 mm 2 m/S 521 mmHg 92%
    16:00 +2°C° 0.3 mm 2 m/S 521 mmHg 93%
    17:00 +2°C° 0.3 mm 2 m/S 521 mmHg 94%
    18:00 +1°C° 0.3 mm 2 m/S 520 mmHg 94%
    19:00 +2°C° 0.2 mm 1 m/S 521 mmHg 94%
    20:00 +2°C° 0.2 mm 1 m/S 521 mmHg 94%
    21:00 +2°C° 0.2 mm 1 m/S 521 mmHg 93%
    22:00 +1°C° 0 mm 1 m/S 520 mmHg 92%
    23:00 0°C° 0 mm 1 m/S 520 mmHg 91%

    übermorgen, 19 Dezember, Mittwoch

    Zeit Temperatur Niederschläge Wind Luftdruck Luftfeuchtigkeit
    00:00 -1°C° 0 mm 1 m/S 520 mmHg 90%
    01:00 -3°C° 0 mm 2 m/S 520 mmHg 87%
    02:00 -3°C° 0 mm 2 m/S 520 mmHg 85%
    03:00 -4°C° 0 mm 3 m/S 520 mmHg 82%
    04:00 -5°C° 0 mm 3 m/S 520 mmHg 79%
    05:00 -5°C° 0 mm 3 m/S 520 mmHg 77%
    06:00 -6°C° 0 mm 3 m/S 520 mmHg 74%
    07:00 -4°C° 0 mm 3 m/S 522 mmHg 69%
    08:00 -1°C° 0 mm 3 m/S 524 mmHg 64%
    09:00 +1°C° 0 mm 3 m/S 526 mmHg 59%
    10:00 +3°C° 0 mm 3 m/S 526 mmHg 55%
    11:00 +5°C° 0 mm 3 m/S 527 mmHg 52%
    12:00 +7°C° 0 mm 3 m/S 528 mmHg 48%
    13:00 +7°C° 0 mm 2 m/S 527 mmHg 50%
    14:00 +7°C° 0 mm 2 m/S 527 mmHg 52%
    15:00 +7°C° 0 mm 2 m/S 527 mmHg 54%
    16:00 +4°C° 0 mm 2 m/S 525 mmHg 57%
    17:00 0°C° 0 mm 3 m/S 524 mmHg 60%
    18:00 -4°C° 0 mm 3 m/S 522 mmHg 64%
    19:00 -4°C° 0 mm 3 m/S 522 mmHg 60%
    20:00 -5°C° 0 mm 3 m/S 522 mmHg 56%
    21:00 -5°C° 0 mm 3 m/S 523 mmHg 52%
    22:00 -5°C° 0 mm 3 m/S 522 mmHg 51%
    23:00 -5°C° 0 mm 3 m/S 522 mmHg 50%

    20 Dezember, Donnerstag

    Zeit Temperatur Niederschläge Wind Luftdruck Luftfeuchtigkeit
    00:00 -5°C° 0 mm 3 m/S 522 mmHg 49%
    01:00 -5°C° 0 mm 3 m/S 522 mmHg 49%
    02:00 -5°C° 0 mm 3 m/S 521 mmHg 50%
    03:00 -6°C° 0 mm 3 m/S 521 mmHg 50%
    04:00 -6°C° 0 mm 3 m/S 521 mmHg 50%
    05:00 -6°C° 0 mm 3 m/S 521 mmHg 50%
    06:00 -6°C° 0 mm 3 m/S 521 mmHg 50%
    07:00 -2°C° 0 mm 2 m/S 523 mmHg 48%
    08:00 +3°C° 0 mm 1 m/S 525 mmHg 47%
    09:00 +5°C° 0 mm 1 m/S 527 mmHg 46%
    10:00 +7°C° 0 mm 1 m/S 527 mmHg 46%
    11:00 +8°C° 0 mm 1 m/S 527 mmHg 46%
    12:00 +8°C° 0 mm 2 m/S 527 mmHg 46%
    13:00 +8°C° 0 mm 2 m/S 527 mmHg 50%
    14:00 +7°C° 0 mm 2 m/S 526 mmHg 55%
    15:00 +7°C° 0 mm 2 m/S 525 mmHg 59%
    16:00 +4°C° 0 mm 2 m/S 523 mmHg 66%
    17:00 +1°C° 0 mm 2 m/S 522 mmHg 74%
    18:00 -2°C° 0 mm 2 m/S 521 mmHg 81%
    19:00 -2°C° 0 mm 2 m/S 521 mmHg 79%
    20:00 -3°C° 0 mm 2 m/S 521 mmHg 77%
    21:00 -3°C° 0 mm 2 m/S 521 mmHg 74%
    22:00 -3°C° 0 mm 2 m/S 521 mmHg 73%
    23:00 -4°C° 0 mm 2 m/S 520 mmHg 72%

    21 Dezember, Freitag

    Zeit Temperatur Niederschläge Wind Luftdruck Luftfeuchtigkeit
    00:00 -4°C° 0 mm 2 m/S 520 mmHg 71%
    01:00 -4°C° 0 mm 2 m/S 520 mmHg 69%
    02:00 -4°C° 0 mm 2 m/S 519 mmHg 68%
    03:00 -5°C° 0 mm 2 m/S 519 mmHg 66%
    04:00 -5°C° 0 mm 2 m/S 519 mmHg 65%
    05:00 -5°C° 0 mm 2 m/S 519 mmHg 63%
    06:00 -5°C° 0 mm 2 m/S 519 mmHg 61%
    07:00 -3°C° 0 mm 2 m/S 521 mmHg 57%
    08:00 +2°C° 0 mm 1 m/S 523 mmHg 53%
    09:00 +5°C° 0 mm 1 m/S 525 mmHg 49%
    10:00 +6°C° 0 mm 1 m/S 525 mmHg 48%
    11:00 +7°C° 0 mm 1 m/S 525 mmHg 48%
    12:00 +7°C° 0 mm 2 m/S 526 mmHg 47%
    13:00 +7°C° 0 mm 2 m/S 525 mmHg 51%
    14:00 +6°C° 0 mm 2 m/S 524 mmHg 55%
    15:00 +6°C° 0 mm 2 m/S 524 mmHg 58%
    16:00 +3°C° 0 mm 2 m/S 523 mmHg 66%
    17:00 +1°C° 0 mm 2 m/S 521 mmHg 74%
    18:00 -3°C° 0 mm 2 m/S 520 mmHg 81%
    19:00 -3°C° 0 mm 2 m/S 521 mmHg 77%
    20:00 -3°C° 0 mm 2 m/S 521 mmHg 72%
    21:00 -4°C° 0 mm 2 m/S 521 mmHg 67%
    22:00 -4°C° 0 mm 2 m/S 521 mmHg 64%
    23:00 -5°C° 0 mm 3 m/S 521 mmHg 62%

    22 Dezember, Samstag

    Zeit Temperatur Niederschläge Wind Luftdruck Luftfeuchtigkeit
    00:00 -5°C° 0 mm 3 m/S 520 mmHg 59%
    01:00 -5°C° 0 mm 3 m/S 520 mmHg 57%
    02:00 -6°C° 0 mm 3 m/S 520 mmHg 54%
    03:00 -6°C° 0 mm 3 m/S 520 mmHg 52%
    04:00 -6°C° 0 mm 3 m/S 520 mmHg 51%
    05:00 -6°C° 0 mm 3 m/S 520 mmHg 50%
    06:00 -6°C° 0 mm 3 m/S 520 mmHg 49%
    07:00 -2°C° 0 mm 2 m/S 522 mmHg 47%
    08:00 +1°C° 0 mm 2 m/S 524 mmHg 46%
    09:00 +5°C° 0 mm 1 m/S 526 mmHg 44%
    10:00 +5°C° 0 mm 2 m/S 526 mmHg 43%
    11:00 +7°C° 0 mm 2 m/S 527 mmHg 43%
    12:00 +8°C° 0 mm 2 m/S 527 mmHg 42%
    13:00 +8°C° 0 mm 2 m/S 527 mmHg 47%
    14:00 +7°C° 0 mm 2 m/S 526 mmHg 52%
    15:00 +7°C° 0 mm 2 m/S 525 mmHg 57%
    16:00 +4°C° 0 mm 2 m/S 524 mmHg 64%
    17:00 +3°C° 0 mm 1 m/S 523 mmHg 72%
    18:00 0°C° 0 mm 1 m/S 522 mmHg 79%
    19:00 -2°C° 0 mm 2 m/S 522 mmHg 76%
    20:00 -2°C° 0 mm 2 m/S 522 mmHg 73%
    21:00 -2°C° 0 mm 2 m/S 522 mmHg 70%
    22:00 -3°C° 0 mm 2 m/S 522 mmHg 68%
    23:00 -3°C° 0 mm 2 m/S 522 mmHg 66%
    Mehr zeigen